WB4ZUT Weather Reports


time (UTC)temp
C
wind
direction
speed
KPH
gust
KPH
rain 1hr
cm
rain 24hr
cm
rain mn
cm
humidity
%
barometer
mb
20260504081616 15 19 4.8 4.8 0.00 0.00 0.00 65 1012.5
20260504081112 15 78 0.0 0.0 0.00 0.00 0.00 64 1010.2
20260504080609 15 118 3.2 3.2 0.00 0.00 0.00 63 1010.1
20260504080105 15 69 0.0 1.6 0.00 0.00 0.00 64 1010.3
20260504050421 16 109 3.2 3.2 0.00 0.00 0.00 59 1011.0
20260504045918 15 81 1.6 3.2 0.00 0.00 0.00 58 1011.0
20260504045414 16 188 9.7 12.9 0.00 0.00 0.00 59 1011.1
20260504044911 16 236 1.6 4.8 0.00 0.00 0.00 59 1011.2
20260504044408 16 84 6.4 8.0 0.00 0.00 0.00 58 1011.2
20260504043906 16 201 9.7 12.9 0.00 0.00 0.00 58 1011.4
20260504043402 16 19 1.6 3.2 0.00 0.00 0.00 58 1011.5
20260504042900 16 67 4.8 9.7 0.00 0.00 0.00 57 1011.4
20260504042356 16 54 1.6 1.6 0.00 0.00 0.00 59 1011.5
20260504041852 16 87 3.2 3.2 0.00 0.00 0.00 58 1011.5
20260504041348 16 90 1.6 3.2 0.00 0.00 0.00 58 1011.5
20260504040845 16 78 1.6 1.6 0.00 0.00 0.00 58 1011.8
20260504040342 16 86 1.6 1.6 0.00 0.00 0.00 58 1012.0
20260504035838 16 72 4.8 8.0 0.00 0.00 0.00 58 1011.9
20260504035337 15 90 4.8 4.8 0.00 0.00 0.00 59 1012.0
20260504034832 15 88 1.6 1.6 0.00 0.00 0.00 60 1012.2
20260504034330 15 92 1.6 1.6 0.00 0.00 0.00 59 1011.9
20260504033827 15 81 1.6 1.6 0.00 0.00 0.00 59 1011.9
20260504033325 16 99 3.2 3.2 0.00 0.00 0.00 59 1012.1
20260504032821 15 139 4.8 8.0 0.00 0.00 0.00 59 1012.0
20260504032319 15 75 0.0 1.6 0.00 0.00 0.00 59 1012.0
20260504031815 15 63 0.0 1.6 0.00 0.00 0.00 60 1012.1
20260504031313 15 156 1.6 3.2 0.00 0.00 0.00 60 1012.1
20260504030809 15 89 1.6 1.6 0.00 0.00 0.00 60 1012.4
20260504030307 16 102 1.6 3.2 0.00 0.00 0.00 60 1012.5
20260504025802 16 110 3.2 3.2 0.00 0.00 0.00 60 1012.5
20260504025300 16 85 0.0 1.6 0.00 0.00 0.00 59 1012.7
20260504024756 16 159 4.8 4.8 0.00 0.00 0.00 59 1012.8
20260504024253 16 132 3.2 4.8 0.00 0.00 0.00 59 1012.8
20260504023749 16 98 1.6 3.2 0.00 0.00 0.00 59 1012.8
20260504023246 16 148 3.2 4.8 0.00 0.00 0.00 58 1012.6
20260504022742 16 114 3.2 3.2 0.00 0.00 0.00 58 1012.5
20260504022238 16 88 1.6 1.6 0.00 0.00 0.00 58 1012.7
20260504021735 16 123 3.2 3.2 0.00 0.00 0.00 57 1012.7
20260504021233 16 83 1.6 3.2 0.00 0.00 0.00 56 1012.6
20260504020729 16 84 3.2 3.2 0.00 0.00 0.00 55 1012.7
20260504020226 16 102 1.6 1.6 0.00 0.00 0.00 56 1012.7
20260504015722 16 84 0.0 1.6 0.00 0.00 0.00 55 1012.5
20260504015219 16 91 1.6 1.6 0.00 0.00 0.00 55 1012.7
20260504014714 16 90 0.0 1.6 0.00 0.00 0.00 55 1012.6
20260504014211 16 82 0.0 1.6 0.00 0.00 0.00 55 1012.5
20260504013709 16 87 0.0 1.6 0.00 0.00 0.00 55 1012.7
20260504013206 17 111 1.6 3.2 0.00 0.00 0.00 54 1012.8
20260504012703 17 96 1.6 1.6 0.00 0.00 0.00 53 1012.8
20260504012201 17 93 1.6 1.6 0.00 0.00 0.00 53 1012.8
20260504011658 17 150 4.8 4.8 0.00 0.00 0.00 52 1013.0
20260504011154 17 90 0.0 0.0 0.00 0.00 0.00 52 1012.9
20260504010650 17 89 0.0 1.6 0.00 0.00 0.00 52 1012.8
20260504010145 17 128 1.6 3.2 0.00 0.00 0.00 50 1012.8
20260504005643 17 152 3.2 3.2 0.00 0.00 0.00 50 1012.8
20260504005139 17 243 3.2 3.2 0.00 0.00 0.00 51 1012.7
20260504004638 17 70 0.0 0.0 0.00 0.00 0.00 51 1012.9
20260504004134 17 120 1.6 3.2 0.00 0.00 0.00 50 1012.7
20260504003631 17 83 1.6 1.6 0.00 0.00 0.00 50 1012.7
20260504003127 18 79 0.0 0.0 0.00 0.00 0.00 50 1012.7
20260504002624 18 90 1.6 1.6 0.00 0.00 0.00 50 1012.7
20260504002122 18 340 3.2 4.8 0.00 0.00 0.00 49 1012.6
20260504001620 18 123 1.6 3.2 0.00 0.00 0.00 48 1012.6
20260504001115 18 84 11.3 17.7 0.00 0.00 0.00 47 1012.2
20260504000613 18 133 3.2 3.2 0.00 0.00 0.00 47 1012.3
20260504000110 18 199 6.4 8.0 0.00 0.00 0.00 46 1012.1
20260503235608 18 180 4.8 8.0 0.00 0.00 0.00 46 1012.1
20260503235105 18 197 6.4 11.3 0.00 0.00 0.00 46 1012.0
20260503234603 18 223 4.8 4.8 0.00 0.00 0.00 46 1012.1
20260503234100 19 241 8.0 11.3 0.00 0.00 0.00 46 1012.2
20260503233557 19 122 3.2 4.8 0.00 0.00 0.00 46 1012.2
20260503233053 19 24 3.2 4.8 0.00 0.00 0.00 45 1012.3
20260503232550 19 104 4.8 4.8 0.00 0.00 0.00 45 1012.3
20260503232047 20 166 4.8 8.0 0.00 0.00 0.00 45 1012.3
20260503231545 20 167 8.0 12.9 0.00 0.00 0.00 44 1012.3
20260503231041 20 207 1.6 3.2 0.00 0.00 0.00 44 1012.3
20260503230538 20 76 1.6 1.6 0.00 0.00 0.00 45 1012.5
20260503230036 20 136 6.4 11.3 0.00 0.00 0.00 44 1012.6
20260503225532 20 82 6.4 9.7 0.00 0.00 0.00 44 1012.6
20260503225027 20 151 4.8 4.8 0.00 0.00 0.00 45 1012.7
20260503224525 20 191 9.7 11.3 0.00 0.00 0.00 44 1012.5
20260503224023 20 213 8.0 11.3 0.00 0.00 0.00 44 1012.5
20260503223521 20 49 4.8 8.0 0.00 0.00 0.00 45 1012.8
20260503223016 20 316 4.8 4.8 0.00 0.00 0.00 45 1012.7
20260503222514 20 230 9.7 16.1 0.00 0.00 0.00 44 1013.0
20260503222012 20 215 9.7 14.5 0.00 0.00 0.00 44 1013.1
20260503221510 20 232 11.3 17.7 0.00 0.00 0.00 44 1013.1
20260503221007 20 175 4.8 8.0 0.00 0.00 0.00 45 1013.2
20260503220503 20 130 9.7 14.5 0.00 0.00 0.00 44 1013.3
20260503220000 20 154 4.8 9.7 0.00 0.00 0.00 45 1013.3
20260503215457 20 111 0.0 1.6 0.00 0.00 0.00 46 1013.5
20260503214954 20 256 4.8 4.8 0.00 0.00 0.00 44 1013.6
20260503214452 20 176 3.2 4.8 0.00 0.00 0.00 45 1013.7
20260503213949 20 205 14.5 17.7 0.00 0.00 0.00 43 1013.6
20260503213448 20 270 4.8 4.8 0.00 0.00 0.00 44 1013.8
20260503212944 20 58 1.6 1.6 0.00 0.00 0.00 47 1014.1
20260503212441 20 54 4.8 8.0 0.00 0.00 0.00 45 1014.1
20260503211938 20 76 4.8 8.0 0.00 0.00 0.00 45 1014.3
20260503211435 20 134 4.8 8.0 0.00 0.00 0.00 45 1014.5
20260503210930 20 114 4.8 4.8 0.00 0.00 0.00 48 1014.4
20260503210428 20 44 4.8 4.8 0.00 0.00 0.00 46 1014.1
20260503205922 19 243 8.0 11.3 0.00 0.00 0.00 44 1014.8
20260503205420 20 260 11.3 17.7 0.00 0.00 0.00 45 1014.7
20260503204916 19 259 6.4 12.9 0.00 0.00 0.00 46 1014.9
20260503204413 19 233 14.5 20.9 0.00 0.00 0.00 45 1014.9
20260503203910 19 244 14.5 20.9 0.00 0.00 0.00 43 1015.2
20260503203408 19 278 16.1 20.9 0.00 0.00 0.00 44 1015.2
20260503202904 20 206 14.5 20.9 0.00 0.00 0.00 44 1015.2
20260503202403 19 86 6.4 14.5 0.00 0.00 0.00 47 1015.4
20260503201901 19 67 4.8 9.7 0.00 0.00 0.00 45 1015.3
20260503201357 19 72 4.8 8.0 0.00 0.00 0.00 47 1015.7
20260503200855 19 339 6.4 9.7 0.00 0.00 0.00 47 1016.0
20260503200350 20 218 11.3 16.1 0.00 0.00 0.00 46 1016.1
20260503195848 18 154 8.0 11.3 0.00 0.00 0.00 46 1016.1
20260503195344 18 334 8.0 12.9 0.00 0.00 0.00 47 1016.3
20260503194842 18 240 8.0 11.3 0.00 0.00 0.00 47 1016.4
20260503194338 18 127 12.9 16.1 0.00 0.00 0.00 47 1016.5
20260503193834 18 246 9.7 12.9 0.00 0.00 0.00 47 1016.7
20260503193330 18 166 8.0 11.3 0.00 0.00 0.00 48 1016.6
20260503192826 18 248 9.7 14.5 0.00 0.00 0.00 47 1016.6
20260503192322 19 192 8.0 9.7 0.00 0.00 0.00 48 1016.8
20260503191818 18 76 3.2 3.2 0.00 0.00 0.00 50 1016.8
20260503191315 18 227 6.4 8.0 0.00 0.00 0.00 49 1017.1
20260503190812 18 132 9.7 11.3 0.00 0.00 0.00 50 1017.0
20260503190309 18 235 6.4 11.3 0.00 0.00 0.00 49 1017.2
20260503185806 18 239 8.0 12.9 0.00 0.00 0.00 49 1017.4
20260503185304 18 92 6.4 9.7 0.00 0.00 0.00 50 1017.2
20260503184802 18 207 11.3 14.5 0.00 0.00 0.00 51 1017.6
20260503184258 18 29 4.8 8.0 0.00 0.00 0.00 53 1017.7
20260503183754 18 225 6.4 8.0 0.00 0.00 0.00 49 1018.1
20260503183252 18 93 4.8 8.0 0.00 0.00 0.00 51 1018.0
20260503182749 17 279 8.0 14.5 0.00 0.00 0.00 51 1018.1
20260503182248 17 349 4.8 4.8 0.00 0.00 0.00 52 1018.3
20260503181744 18 244 8.0 14.5 0.00 0.00 0.00 52 1018.6
20260503181242 17 317 8.0 9.7 0.00 0.00 0.00 51 1018.4
20260503180738 17 254 14.5 17.7 0.00 0.00 0.00 51 1018.2
20260503180236 17 66 1.6 1.6 0.00 0.00 0.00 52 1018.6
20260503175732 17 93 1.6 1.6 0.00 0.00 0.00 51 1018.7
20260503175231 17 101 3.2 3.2 0.00 0.00 0.00 54 1018.7
20260503174726 17 290 3.2 4.8 0.00 0.00 0.00 51 1018.9
20260503174224 17 93 4.8 8.0 0.00 0.00 0.00 51 1019.0
20260503173719 17 222 12.9 17.7 0.00 0.00 0.00 51 1019.1
20260503173216 17 266 12.9 16.1 0.00 0.00 0.00 52 1019.1
20260503172713 16 233 4.8 11.3 0.00 0.00 0.00 53 1019.3
20260503172210 17 358 4.8 9.7 0.00 0.00 0.00 53 1019.5
20260503171706 17 164 1.6 3.2 0.00 0.00 0.00 56 1019.6
20260503171203 17 238 6.4 9.7 0.00 0.00 0.00 53 1019.5
20260503170700 16 276 4.8 14.5 0.00 0.00 0.00 52 1019.6
20260503170157 16 228 6.4 12.9 0.00 0.00 0.00 52 1019.8
20260503160118 15 43 4.8 9.7 0.00 0.00 0.00 53 1020.2
20260503150548 15 19 3.2 3.2 0.00 0.00 0.00 58 1020.7
20260503130938 8 76 1.6 1.6 0.00 0.00 0.00 98 1020.9
20260503130436 8 205 8.0 9.7 0.00 0.00 0.00 98 1020.8
20260503110326 2 63 0.0 0.0 0.00 0.00 0.00 99 1020.2
20260503100252 2 63 0.0 0.0 0.00 0.00 0.00 99 1020.0